"Pseudo-MPEC" for P11OlUf

Created 2023 Dec 2 2:22:05 UT using Find_Orb

Click here for an explanation of pseudo-MPECs

 
 Astrometry: 
     P11OlUf* C2023 11 181,recVQ0\HW!G3ysn3XLL0qKrGWoBUZN(Ek^P!tx3PFFOs:+fio7F51
     P11OlUf  C2023 11 18nh_dyT-/5[74MOe(Jc;cb)\VygCB7Z7Ys!X(.gqj$_AstrometryF51
     P11OlUf  C2023 11 18qTJyXho2Q1ohgn/d7Fredacted;yN%L)^T8K%\*e-^i,p1U(=fw+F51
     P11OlUf  C2023 11 18.Enr\;qd@xnXR`^2vhQ)tiv,y$IeU.MF7qqU8o#J=.49v?vV9@REF51
     P11OlUf  C2023 11 18?0H^?02tg21^)@vSD!U;/C/`+U%oUxYW]yhIsU[^m$DqET#M:?2WF51
     P11OlUf KC2023 11 19Ol*clickj_a'^)P18eo,^NP/PO6H)mOxgU.5RtaZ3EdD7*:ChhMwH21
     P11OlUf KC2023 11 19rgA`[J^fmt(MVYai$K4U(9wJAuBw=]whuy.hq)J50'ohereKpMv^H21
     P11OlUf KC2023 11 19C,for@7)j2Xg/u^GLB5ewr5gexplanation\p6-Ac]%aiRMDd_eMH21
     P11OlUf KC2023 11 19ZJtaPqg?6dk%+MvAZ=_rvavRhAN,Cb0I;ijZYUL^:SZ\hwA`tA!JH21

Station data:
(F51) Pan-STARRS 1, Haleakala  (N20.707234 W156.255910)  US/Hawaii.
   Observers J. Bulger, T. Lowe, A. Schultz, M. Willman. Measurers K.
   Chambers, S. Chastel, T. de Boer, L. Denneau, J. Fairlamb, H. Flewelling,
   M. Huber, C.-C. Lin, E. Magnier, Y. Ramanjooloo, R. Wainscoat, R. Weryk.
   1.8-m Ritchey-Chrétien + CCD.
(H21) Astronomical Research Observatory, Westfield  (N39.483054 W87.968270)
   US/Illinois.  Observer R. Holmes. Measurers S. Foglia, L. Buzzi, T.
   Linder, R. Holmes. 0.76-m f/3.0 astrograph + CCD0.81-m f/4.0 astrograph +
   CCD0.61-m f/4.5 astrograph + CCD0.40-m f/5.32 astrograph + CCD.

Orbital elements:  P11OlUf
   Perihelion 2023 Sep 18.64145 +/- 3.57 TT = 15:23:41 (JD 2460206.14145)
Epoch 2023 Nov 19.0 TT = JDT 2460267.5   Earth MOID: 0.0153   Ma: 0.0296
M  15.84004707 +/- 7                (J2000 ecliptic)             AutoNEOCP
n   0.25815548 +/- 0.102            Peri.  304.90898 +/- 0.41
a   2.44276570 +/- 0.643            Node    42.72334 +/- 1.0
e   0.6300018 +/- 0.108             Incl.    3.54877 +/- 0.27
P   3.82                   H 23.97  G  0.15   U 11.2
q 0.90381890 +/- 0.0249    Q 3.98171249 +/- 1.31
From 9 observations 2023 Nov. 18-19 (17.4 hr); mean residual 0".12
Residuals in arcseconds: 
231118 F51  .05+  .06+    231118 F51  .20-  .09-    231119 H21  .10-  .12-    
231118 F51  .06-  .02+    231118 F51  .21+  .04+    231119 H21  .10+  .12-    
231118 F51  .00   .04-    231119 H21  .16-  .22+    231119 H21  .14+  .06+    

Ephemerides (geocentric):
Date (UTC) HH   RA             Dec           delta  r     elong  mag " sig PA
---- --------  ------------   ------------  ------ ------ -----  --- --------
2023 12 02 02  04 20 40.429   +27 25 39.93  .36115 1.3457 174.0 22.8  626  90
2023 12 02 03  04 20 37.214   +27 25 36.69  .36153 1.3461 174.0 22.8  629  90
2023 12 02 04  04 20 34.007   +27 25 33.43  .36191 1.3464 174.0 22.8  631  90
2023 12 02 05  04 20 30.806   +27 25 30.15  .36230 1.3468 174.0 22.8  634  89
2023 12 02 06  04 20 27.613   +27 25 26.86  .36268 1.3472 173.9 22.8  637  89
2023 12 02 07  04 20 24.428   +27 25 23.56  .36306 1.3476 173.9 22.8  639  89
2023 12 02 08  04 20 21.249   +27 25 20.24  .36344 1.3479 173.9 22.8  642  89
2023 12 02 09  04 20 18.078   +27 25 16.90  .36383 1.3483 173.9 22.8  645  89
2023 12 02 10  04 20 14.914   +27 25 13.55  .36421 1.3487 173.9 22.8  647  89
2023 12 02 11  04 20 11.758   +27 25 10.18  .36460 1.3490 173.9 22.8  650  89
2023 12 02 12  04 20 08.608   +27 25 06.80  .36498 1.3494 173.8 22.8  653  89
2023 12 02 13  04 20 05.466   +27 25 03.41  .36536 1.3498 173.8 22.8  655  89
2023 12 02 14  04 20 02.331   +27 24 59.99  .36575 1.3501 173.8 22.8  658  89
2023 12 02 15  04 19 59.204   +27 24 56.57  .36613 1.3505 173.8 22.8  661  89
2023 12 02 16  04 19 56.083   +27 24 53.13  .36652 1.3509 173.8 22.8  663  89
2023 12 02 17  04 19 52.970   +27 24 49.67  .36690 1.3512 173.8 22.8  666  89
2023 12 02 18  04 19 49.864   +27 24 46.20  .36729 1.3516 173.7 22.9  669  89
2023 12 02 19  04 19 46.765   +27 24 42.72  .36767 1.3520 173.7 22.9  671  89
2023 12 02 20  04 19 43.674   +27 24 39.22  .36806 1.3523 173.7 22.9  674  89
2023 12 02 21  04 19 40.589   +27 24 35.70  .36845 1.3527 173.7 22.9  677  89
2023 12 02 22  04 19 37.512   +27 24 32.18  .36883 1.3531 173.7 22.9  679  89
2023 12 02 23  04 19 34.442   +27 24 28.63  .36922 1.3534 173.6 22.9  682  89
2023 12 03 00  04 19 31.379   +27 24 25.08  .36961 1.3538 173.6 22.9  685  89
2023 12 03 01  04 19 28.324   +27 24 21.51  .36999 1.3542 173.6 22.9  687  89
2023 12 03 02  04 19 25.275   +27 24 17.93  .37038 1.3545 173.6 22.9  690  89
2023 12 03 03  04 19 22.234   +27 24 14.33  .37077 1.3549 173.5 22.9  693  89
2023 12 03 04  04 19 19.200   +27 24 10.72  .37116 1.3553 173.5 22.9  695  89
2023 12 03 05  04 19 16.173   +27 24 07.09  .37154 1.3557 173.5 22.9  698  89
2023 12 03 06  04 19 13.153   +27 24 03.45  .37193 1.3560 173.5 22.9  700  89
2023 12 03 07  04 19 10.141   +27 23 59.80  .37232 1.3564 173.5 22.9  703  89
2023 12 03 08  04 19 07.135   +27 23 56.14  .37271 1.3568 173.4 22.9  706  89
2023 12 03 09  04 19 04.137   +27 23 52.46  .37310 1.3571 173.4 22.9  708  89
2023 12 03 10  04 19 01.145   +27 23 48.77  .37349 1.3575 173.4 22.9  711  89
2023 12 03 11  04 18 58.161   +27 23 45.06  .37388 1.3579 173.4 22.9  714  89
2023 12 03 12  04 18 55.184   +27 23 41.34  .37427 1.3582 173.3 22.9  716  89
2023 12 03 13  04 18 52.214   +27 23 37.61  .37466 1.3586 173.3 22.9  719  89
2023 12 03 14  04 18 49.252   +27 23 33.87  .37505 1.3590 173.3 22.9  721  89
2023 12 03 15  04 18 46.296   +27 23 30.11  .37544 1.3593 173.3 22.9  724  89
2023 12 03 16  04 18 43.347   +27 23 26.34  .37583 1.3597 173.2 22.9  727  89
2023 12 03 17  04 18 40.406   +27 23 22.56  .37622 1.3601 173.2 22.9  729  89
2023 12 03 18  04 18 37.471   +27 23 18.76  .37662 1.3604 173.2 22.9  732  89
2023 12 03 19  04 18 34.544   +27 23 14.96  .37701 1.3608 173.1 22.9  735  89
2023 12 03 20  04 18 31.624   +27 23 11.14  .37740 1.3612 173.1 22.9  737  89
2023 12 03 21  04 18 28.711   +27 23 07.30  .37779 1.3616 173.1 23.0  740  89
2023 12 03 22  04 18 25.805   +27 23 03.46  .37819 1.3619 173.1 23.0  742  89
2023 12 03 23  04 18 22.906   +27 22 59.60  .37858 1.3623 173.0 23.0  745  89
2023 12 04 00  04 18 20.014   +27 22 55.73  .37897 1.3627 173.0 23.0  748  89
2023 12 04 01  04 18 17.129   +27 22 51.85  .37937 1.3630 173.0 23.0  750  89